Weather in Lisivshchyna

Ukraine / Zhytomyr Region     50˚47′30″N   28˚34′00″E
temp.,
°C
wind,
m/s
gust,
m/s
humid.,
%
clouds,
%
prec.,
mm/h
press.,
hPa
HPBL,
m
16 january, sat
sat1623:00−12˚nw3696100 0.1 1014363
02:00−16˚nw489382 0.1 1014319
05:00−17˚nw499389 0.0 1014445
08:00−18˚wnw489395 0.0 1016425
11:00−16˚wnw478899 0.0 1017561
14:00−14˚wnw4684100 0.1 1016796
17:00−15˚wnw2592100 0.1 1017326
20:00−16˚wnw229276 0.1 101727
17 january, sun
sun1723:00−16˚sw229314 0.0 101726
02:00−15˚se119252 0.0 101736
05:00−14˚se129496 0.1 1016100
08:00−14˚e229493 0.1 1017123
11:00−13˚ne2287100 0.0 1017235
14:00−12˚n2383100 0.0 1018424
17:00−12˚n3491100 0.1 1018407
20:00−12˚nnw3593100 0.6 1018436
18 january, mon
mon1823:00−14˚nnw4693100 0.1 1019349
02:00−16˚nw3695100 0.1 1020253
05:00−18˚nw359792 0.0 1020190
08:00−19˚nw469679 0.0 1021209
11:00−17˚nw359274 0.0 1022278
14:00−15˚nw459073 0.0 1021332
17:00−16˚wnw369253 0.0 1022154
20:00−16˚wnw379370 0.0 1022201
19 january, tue
tue1923:00−15˚wnw369588 0.0 1022242
02:00−15˚wnw479589 0.1 1022246
05:00−15˚wnw369594 0.1 1022237
08:00−16˚w359582 0.1 1022105
11:00−13˚w34904 0.0 1022162
14:00−11˚wsw34842 0.0 1021206
17:00−13˚sw23860 0.0 102130
20:00−13˚ssw34920 0.0 102150
20 january, wed
wed2023:00−12˚s349622 0.0 102166
02:00−9˚ssw379651 0.1 1021143
05:00−8˚ssw3696100 0.1 1020127
08:00−7˚ssw4892100 0.1 1019200
11:00−5˚ssw5986100 0.0 1019264
14:00−4˚s599079 0.0 1018315
17:00−4˚s5109193 0.0 1018300
20:00−4˚s6109297 0.1 1018259